User: anonymous   Login
Location: �clusier
(49.9361°N, 2.7869°E)
Time: 19:56:03
(UTC+00:00)
Language:

Cosmos 1607 - Orbit

View from above orbital plane
View from above orbital plane
View from above satellite
View from above satellite

Ground track
Ground track

The orbit data is extracted from the following two-line orbital elements,

1 15378U 84112A   21271.50130685 -.00000073  00000-0  14123-4 0  9997
2 15378  64.9922 200.8501 0050843 215.9359 143.8278 13.83573232866637
Epoch (UTC): 28 September 2021 12:01:52
Eccentricity: 0.0050843
inclination: 64.9922°
perigee height: 914 km
apogee height: 988 km
right ascension of ascending node: 200.8501°
argument of perigee: 215.9359°
revolutions per day: 13.83573232
mean anomaly at epoch: 143.8278°
orbit number at epoch: 86663

The dashed part of the orbit path shows where the satellite is in the earth's shadow,  

DLR